• Processing (Info)

  • MPEC 2008-B03 : 2008 AH33

    The following Minor Planet Electronic Circular may be linked-to from your own Web pages, but must not otherwise be redistributed electronically.

    A form allowing access to any MPEC is at the bottom of this page.


    Read MPEC 2008-B02 Read MPEC 2008-B04


    M.P.E.C. 2008-B03                                Issued 2008 Jan. 16, 17:19 UT
    
         The Minor Planet Electronic Circulars contain information on unusual
             minor planets and routine data on comets.  They are published
       on behalf of Commission 20 of the International Astronomical Union by the
              Minor Planet Center, Smithsonian Astrophysical Observatory,
                              Cambridge, MA 02138, U.S.A.
    
                 Prepared using the Tamkin Foundation Computer Network
    
                                  MPC@CFA.HARVARD.EDU
              URL http://www.cfa.harvard.edu/iau/mpc.html  ISSN 1523-6714
    
                                       2008 AH33
    
    Observations:
         K08A33H* C2008 01 12.50946 14 57 37.76 +07 18 28.5          20.1 V EB003G96
         K08A33H  C2008 01 12.51867 14 57 38.73 +07 17 36.9          20.5 V EB003G96
         K08A33H  C2008 01 12.52792 14 57 39.70 +07 16 45.5          20.4 V EB003G96
         K08A33H  C2008 01 12.53719 14 57 40.71 +07 15 53.7          20.4 V EB003G96
         K08A33H  C2008 01 15.47470 15 03 13.32 +02 35 32.7          20.0 R EB003734
         K08A33H  C2008 01 15.47797 15 03 13.71 +02 35 13.2          20.3 R EB003734
         K08A33H  C2008 01 15.48122 15 03 14.11 +02 34 53.9          20.3 R EB003734
         K08A33H  C2008 01 16.18675 15 04 36.02 +01 25 39.7                 EB003J95
         K08A33H  C2008 01 16.19821 15 04 37.33 +01 24 31.4          20.1 R EB003J95
         K08A33H  C2008 01 16.52250 15 05 15.39 +00 52 33.7          20.2 V EB003G96
         K08A33H  C2008 01 16.52366 15 05 15.54 +00 52 27.3          20.9 V EB003G96
         K08A33H  C2008 01 16.52479 15 05 15.64 +00 52 20.6          20.2 V EB003G96
         K08A33H  C2008 01 16.52593 15 05 15.75 +00 52 13.6          20.6 V EB003G96
         K08A33H  C2008 01 16.55994 15 05 19.57 +00 48 51.6          20.1 V EB003G96
         K08A33H  C2008 01 16.56120 15 05 19.72 +00 48 44.3          20.5 V EB003G96
         K08A33H  C2008 01 16.56234 15 05 19.83 +00 48 36.9          20.1 V EB003G96
         K08A33H  C2008 01 16.56354 15 05 19.97 +00 48 30.8          20.7 V EB003G96
    
    Observer details:
    734 Farpoint Observatory.  Observer G. Hug.  0.7-m reflector + CCD.
    G96 Mt. Lemmon Survey.  Observers S. M. Larson, A. Boattini.  Measurers
        E. C. Beshore, A. Boattini, G. J. Garradd, A. R. Gibbs, A. D. Grauer,
        R. E. Hill, R. A. Kowalski, S. M. Larson, R. H. McNaught.  1.5-m reflector
        + CCD.
    J95 Great Shefford.  Observer P. Birtwhistle.  0.40-m f/6.0 Schmidt-Cassegrain
        + CCD.
    
    Orbital elements:
    2008 AH33                                           PHA, Earth MOID = 0.0323 AU
    Epoch 2007 Oct. 27.0 TT = JDT 2454400.5                 MPC
    M 330.65811              (2000.0)            P               Q
    n   0.32420714     Peri.  176.69629     -0.89285228     -0.37867519
    a   2.0985581      Node   335.95012     +0.39826416     -0.41123834
    e   0.5446841      Incl.   36.73696     +0.21023907     -0.82914904
    P   3.04           H   19.3           G   0.15           U   8
    Residuals in seconds of arc
    080112 G96  0.0   0.1-    080115 734  0.6+  0.4-    080116 G96  0.3-  0.2-
    080112 G96  0.1-  0.3-    080116 J95  0.2-  0.1+    080116 G96  0.0   0.2-
    080112 G96  0.3-  0.1-    080116 J95  0.1-  0.5-    080116 G96  0.1+  0.0
    080112 G96  0.2+  0.1-    080116 G96  0.1+  0.5-    080116 G96  0.1-  0.6-
    080115 734  0.4-  0.2+    080116 G96  0.4+  0.0     080116 G96  0.0   0.4+
    080115 734  0.0   0.2-    080116 G96  0.0   0.0
    
    Ephemeris:
    2008 AH33                a,e,i = 2.10, 0.54, 37                  q = 0.9555
    Date    TT    R. A. (2000) Decl.     Delta      r     Elong.  Phase     V
    2008 01 15    15 02.30   +03 22.0    0.500    0.965    73.1    77.2    20.4
    2008 01 25    15 23.20   -13 41.1    0.480    0.956    72.4    79.0    20.4
    2008 02 04    15 49.26   -30 55.7    0.493    0.963    72.9    77.9    20.4
    2008 02 14    16 22.98   -45 55.9    0.537    0.988    74.3    74.2    20.5
    2008 02 24    17 07.17   -57 27.9    0.600    1.028    76.2    69.2    20.7
    2008 03 05    18 04.08   -65 32.4    0.673    1.080    78.3    64.1    20.9
    2008 03 15    19 12.73   -70 39.8    0.746    1.141    80.5    59.3    21.1
    2008 03 25    20 26.45   -73 31.8    0.814    1.209    83.0    55.0    21.3
    2008 04 04    21 35.42   -74 58.6    0.875    1.281    85.9    51.1    21.4
    2008 04 14    22 33.24   -75 49.2    0.927    1.356    89.2    47.7    21.6
    2008 04 24    23 19.10   -76 39.2    0.972    1.433    92.9    44.5    21.7
    2008 05 04    23 54.60   -77 50.6    1.009    1.510    96.9    41.5    21.8
    2008 05 14    00 20.58   -79 35.2    1.042    1.587   101.3    38.7    21.9
    2008 05 24    00 34.92   -81 56.5    1.073    1.663   105.7    35.9    22.0
    
    Sonia Keys                   (C) Copyright 2008 MPC           M.P.E.C. 2008-B03
    

    Read MPEC 2008-B02 Read MPEC 2008-B04


    MPEC number:

    Enter an MPEC number in one of the following forms:

    • 1997-B01 (the full form)
    • J97B01 (the packed version of the full form)
    • B01 (the abbreviated form)